Location: Corcelles
(46.1547°N, 4.7234°E)
Time: 08:31:25
(UTC+00:00)

Lacrosse 5 - Pass Details

Date: 14 July 2020
Orbit: 717 x 720 km, 57.0° (Epoch: 11 August)

Event Time Altitude Azimuth Distance (km) Brightness Sun altitude
Exits shadow 01:49:49 - 273° (W) 2,743 4.6 -16.7°
Reaches altitude 10° 01:51:24 10° 280° (W) 2,202 4.2 -16.6°
Maximum altitude 01:55:52 30° 342° (NNW) 1,267 3.5 -16.2°
Drops below altitude 10° 02:00:21 10° 44° (NE) 2,206 5.7 -15.8°
Sets 02:03:00 0° 55° (NE) 3,128 6.5 -15.6°
